[[{"header":{"parameterUnit":"m.s-1","parameterCategory":2,"la1":30.2991,"la2":30.254,"lo1":-89.0895,"lo2":-89.0444,"dy":0.0017,"dx":0.0017,"nx":28,"ny":28,"refTime":"2025-04-27T09:00:00:Z","depth":"0","parameterNumber":2,"parameterNumberName":"U-component_of_CURRENTS"},"data":[0,0,0,0,0,0,0,0,0,0,0,0,0,0,0,0,0,0,0,0,0,0,0,0,0,0,0,0,0,0,0,0,0,0,0,0,0,0,0,0,0,0,0,0,0,0,0,0,0,0,0,0,0,0,0,0,0,0,0.29,0.2901,0,0.2964,0.2965,0.2965,0.2991,0.2991,0.2991,0.2991,0.301,0.301,0.3011,0,0,0,0,0,0,0,0,0,0,0,0,0,0.2771,0.2774,0.29,0.2901,0.2902,0.2964,0.2965,0.2965,0.2991,0.2991,0.2991,0.2991,0.3009,0.301,0.3011,0,0,0,0,0,0,0,0,0,0,0,0,0,0.2829,0.2774,0.29,0.2923,0.2926,0.2964,0.2965,0.2965,0.2991,0.2991,0.2991,0.2991,0.3009,0.301,0.3011,0.3016,0,0,0.3013,0.3014,0,0,0,0,0,0,0,0,0.2826,0.2834,0.2919,0.2921,0.2925,0.2971,0.2926,0.2981,0.2991,0.2964,0.2991,0.2991,0.2993,0.2995,0.3006,0.3017,0.3018,0.3013,0.3014,0.3014,0.3014,0,0,0,0,0,0,0,0.2822,0.2831,0.2924,0.292,0.2923,0.2921,0.2929,0.2937,0.2976,0.2967,0.2969,0.2979,0.2994,0.3005,0.3007,0.3018,0.3013,0.3014,0.3014,0.3015,0.3099,0.3101,0,0,0,0,0,0,0.2819,0.2828,0.2922,0.2926,0.2876,0.2923,0.2932,0.2955,0.2977,0.2982,0.2979,0.298,0.3004,0.3006,0.3007,0.307,0.3014,0.3015,0.3015,0.3098,0.31,0.3102,0,0,0,0,0,0,0.2816,0.2827,0.2919,0.2878,0.289,0.2926,0.295,0.2956,0.297,0.2987,0.299,0.2987,0.3004,0.3006,0.3034,0.3068,0.3015,0.3016,0.3095,0.3098,0.3101,0.316,0,0,0,0,0,0,0.2812,0.2826,0.284,0.2879,0.2892,0.2952,0.2951,0.2957,0.2976,0.2978,0.2995,0.2997,0.3004,0.3033,0.3035,0.3069,0.3016,0.3093,0.3097,0.31,0.3155,0.3164,0.3171,0,0,0,0,0,0.2808,0.2829,0.2841,0.2852,0.2912,0.2953,0.296,0.2983,0.2977,0.2992,0.3009,0.2997,0.3056,0.3035,0.3037,0.3072,0.3092,0.3096,0.31,0.3152,0.3162,0.3171,0,0,0,0,0,0,0.2781,0.2835,0.2849,0.2886,0.2921,0.2958,0.2974,0.2983,0.3007,0.3008,0.3013,0.3018,0.3059,0.3055,0.3032,0.3108,0.3074,0.3078,0.3113,0.3123,0.3131,0.3134,0.3017,0,0,0,0,0,0.2782,0.2812,0.286,0.2889,0.2909,0.2939,0.2956,0.2974,0.3,0.3011,0.3024,0.3044,0.3077,0.3089,0.3112,0.3144,0.3156,0.317,0.3178,0.3185,0.319,0.3245,0.3259,0.3115,0.3115,0.3115,0,0,0.2775,0.2812,0.2826,0.2884,0.2912,0.2951,0.2949,0.2983,0.3018,0.3008,0.3052,0.3069,0.3092,0.3141,0.3159,0.3141,0.3234,0.319,0.3195,0.3197,0.3251,0.3265,0.3277,0.3117,0.3117,0.3117,0,0,0.2781,0.2816,0.2844,0.2879,0.2928,0.2956,0.2966,0.3009,0.3034,0.3076,0.3089,0.3126,0.3159,0.3196,0.3215,0.3276,0.3274,0.3283,0.3325,0.3379,0.3391,0.3402,0.3441,0.3455,0.3286,0.3286,0.3286,0,0.2768,0.2819,0.2856,0.2896,0.2928,0.2959,0.2998,0.3033,0.3079,0.3107,0.3098,0.3181,0.3191,0.3268,0.3295,0.3295,0.3319,0.3285,0.3389,0.34,0.341,0.3448,0.3462,0.329,0.3289,0.3289,0.3289,0,0.28,0.2841,0.2861,0.2928,0.2968,0.3004,0.3063,0.31,0.3125,0.316,0.3234,0.3263,0.3311,0.3328,0.333,0.3416,0.3408,0.3393,0.3363,0.3428,0.3464,0.3478,0.3294,0.3293,0.3292,0.3291,0,0,0.2761,0.2863,0.2867,0.2901,0.2988,0.3017,0.3092,0.3166,0.3212,0.326,0.3328,0.3388,0.34,0.3423,0.3439,0.3486,0.3576,0.3472,0.3473,0.3507,0.3695,0.3665,0.3677,0.3582,0.3585,0.3587,0.3693,0,0.277,0.2842,0.2898,0.2961,0.3004,0.3069,0.3137,0.3208,0.3268,0.3341,0.3393,0.3459,0.344,0.3472,0.3519,0.3569,0.3615,0.3548,0.363,0.3632,0.3595,0.3694,0.3614,0.3699,0.3707,0.3709,0.3711,0,0.2776,0.2829,0.2891,0.2989,0.3014,0.3054,0.3162,0.3225,0.3343,0.3401,0.3478,0.3521,0.3614,0.3578,0.3696,0.3656,0.368,0.3706,0.3711,0.3671,0.3629,0.3635,0.3724,0.364,0.3732,0.373,0.3729,0,0.2721,0.2818,0.2864,0.2895,0.3012,0.3048,0.3108,0.3229,0.3297,0.3434,0.3497,0.361,0.3669,0.3731,0.3784,0.3752,0.3904,0.3863,0.3857,0.3854,0.3795,0.3783,0.3808,0.3939,0.3939,0.3939,0.3939,0,0.2706,0.2738,0.2832,0.2852,0.291,0.3005,0.308,0.3168,0.3305,0.339,0.3505,0.3602,0.3711,0.3804,0.3833,0.3903,0.3945,0.3891,0.3893,0.3813,0.3802,0.373,0.3695,0.3943,0.3942,0.3941,0.3941,0,0.2639,0.2701,0.2748,0.2851,0.288,0.2912,0.3043,0.3104,0.3245,0.3364,0.3413,0.3617,0.3753,0.3842,0.3967,0.3962,0.3937,0.4032,0.3927,0.3915,0.3805,0.3776,0.3661,0.3551,0.4051,0.4051,0.4051,0,0.2611,0.263,0.2714,0.2735,0.2772,0.2841,0.2896,0.305,0.3128,0.3367,0.342,0.3612,0.3741,0.3929,0.3989,0.4064,0.3936,0.4006,0.3923,0.3815,0.3786,0.3608,0.351,0.3873,0.3872,0.3871,0.387,0,0.2557,0.2579,0.2618,0.2665,0.2701,0.2758,0.2847,0.2906,0.3095,0.3214,0.3396,0.3526,0.3746,0.3835,0.3955,0.3986,0.3838,0.3983,0.391,0.3692,0.3464,0.3353,0.3777,0.386,0.3861,0.3862,0.3862,0.3863,0.2502,0.2508,0.2555,0.2591,0.2633,0.2671,0.2691,0.2811,0.2927,0.3093,0.3285,0.3433,0.3662,0.3843,0.3843,0.3821,0.3755,0.3744,0.3734,0.3573,0.3412,0.3807,0.3862,0.3863,0.3864,0.3865,0.3865,0,0.2433,0.2455,0.2487,0.2519,0.2528,0.2584,0.2656,0.2671,0.2761,0.2949,0.3098,0.3323,0.3472,0.3608,0.3716,0.3608,0.3418,0.3521,0.3268,0.3195,0.3607,0.3544,0.3485,0.3485,0.3485,0.3486,0.3486,0.3486,0.2398,0.2398,0.2419,0.2409,0.2429,0.2405,0.2422,0.2467,0.257,0.2703,0.2825,0.2986,0.3325,0.3585,0.3558,0.3468,0.3179,0.3063,0.3001,0.3335,0.3354,0.3371,0.3303,0.3195,0.3194,0.2458,0.2453,0.2449]},{"header":{"parameterUnit":"m.s-1","parameterCategory":2,"la1":30.2991,"la2":30.254,"lo1":-89.0895,"lo2":-89.0444,"dy":0.0017,"dx":0.0017,"nx":28,"ny":28,"refTime":"2025-04-27T09:00:00:Z","depth":"0","parameterNumber":3,"parameterNumberName":"V-component_of_CURRENTS"},"data":[0,0,0,0,0,0,0,0,0,0,0,0,0,0,0,0,0,0,0,0,0,0,0,0,0,0,0,0,0,0,0,0,0,0,0,0,0,0,0,0,0,0,0,0,0,0,0,0,0,0,0,0,0,0,0,0,0,0,0.0147,0.0146,0,0.0031,0.0029,0.0028,-0.0067,-0.0067,-0.0068,-0.0069,-0.0166,-0.0167,-0.0169,0,0,0,0,0,0,0,0,0,0,0,0,0,0.0214,0.0214,0.0147,0.0145,0.0144,0.0031,0.0029,0.0027,-0.0066,-0.0067,-0.0068,-0.0069,-0.0165,-0.0167,-0.017,0,0,0,0,0,0,0,0,0,0,0,0,0,0.0148,0.0214,0.0147,0.0086,0.0079,0.0031,0.0029,0.0027,-0.0066,-0.0067,-0.0068,-0.0069,-0.0164,-0.0167,-0.017,-0.0165,0,0,-0.0179,-0.018,0,0,0,0,0,0,0,0,0.0152,0.0146,0.0096,0.009,0.0083,-0.0002,0.0017,-0.0036,-0.0066,-0.0014,-0.0069,-0.007,-0.0107,-0.0114,-0.0138,-0.017,-0.0174,-0.0179,-0.018,-0.0182,-0.0183,0,0,0,0,0,0,0,0.0157,0.015,0.0098,0.0095,0.0087,0.0039,0.0029,0.0006,-0.0054,-0.0018,-0.0025,-0.0033,-0.0111,-0.0135,-0.0141,-0.0175,-0.0179,-0.0181,-0.0183,-0.0184,-0.0212,-0.0211,0,0,0,0,0,0,0.0181,0.0155,0.0102,0.0095,0.0118,0.004,0.0028,0.0024,-0.0055,-0.0067,-0.0032,-0.0037,-0.0129,-0.0137,-0.0144,-0.0124,-0.0182,-0.0184,-0.0186,-0.0213,-0.0212,-0.0211,0,0,0,0,0,0,0.0183,0.0178,0.0107,0.0124,0.0111,0.004,0.0036,0.0022,0.0002,-0.0065,-0.0078,-0.0038,-0.0131,-0.014,-0.0161,-0.0129,-0.0186,-0.0188,-0.0214,-0.0213,-0.0211,-0.0095,0,0,0,0,0,0,0.0186,0.018,0.0188,0.0126,0.0112,0.0094,0.0037,0.0021,-0.0001,-0.0009,-0.0074,-0.0085,-0.0132,-0.0156,-0.0164,-0.0134,-0.019,-0.0216,-0.0214,-0.0212,-0.01,-0.0089,-0.0081,0,0,0,0,0,0.0189,0.0212,0.0189,0.0183,0.0125,0.0095,0.0084,0.0027,0.0,0.0002,-0.0048,-0.0082,-0.015,-0.0158,-0.0167,-0.0137,-0.0216,-0.0214,-0.0212,-0.0104,-0.0091,-0.0081,0,0,0,0,0,0,0.0251,0.0203,0.0177,0.0185,0.0149,0.008,0.0079,0.0041,0.0001,-0.0003,-0.0072,-0.0085,-0.0094,-0.013,-0.0137,-0.0141,-0.0188,-0.0187,-0.0103,-0.0091,-0.0082,-0.0063,-0.0193,0,0,0,0,0,0.0269,0.027,0.0217,0.0224,0.0212,0.0149,0.0131,0.0095,0.005,0.003,-0.0018,-0.0062,-0.0092,-0.0103,-0.014,-0.0135,-0.0181,-0.0122,-0.0113,-0.0104,-0.0095,-0.014,-0.0133,-0.0204,-0.0204,-0.0204,0,0,0.0295,0.027,0.027,0.0237,0.0203,0.0204,0.0135,0.0121,0.0123,0.003,0.0022,-0.0031,-0.0086,-0.0091,-0.0096,-0.0114,-0.0107,-0.0101,-0.0093,-0.009,-0.0137,-0.013,-0.0124,-0.0202,-0.0203,-0.0203,0,0,0.0352,0.0327,0.0346,0.0325,0.0289,0.0254,0.0258,0.02,0.0176,0.0159,0.0094,0.006,0.0015,-0.002,-0.0042,0.0002,-0.0061,-0.0005,0.0067,0.0025,0.003,0.0034,-0.0009,-0.001,0.0007,0.0007,0.0007,0,0.0387,0.0399,0.0349,0.0363,0.0358,0.0287,0.0311,0.0282,0.0224,0.0214,0.0175,0.0098,0.005,0.0045,0.0053,0.0026,-0.0013,0.0031,0.0038,0.0041,0.0044,-0.0003,-0.0005,0.0013,0.0012,0.0011,0.0011,0,0.0453,0.0462,0.0476,0.0469,0.0461,0.047,0.0428,0.0415,0.0375,0.0336,0.031,0.0232,0.0186,0.0169,0.0123,0.0126,0.0088,0.0051,0.0013,0.0058,0.0006,0.0002,0.0021,0.0019,0.0017,0.0016,0,0,0.0529,0.0524,0.0527,0.0543,0.0518,0.0521,0.0534,0.052,0.0532,0.0465,0.0471,0.0401,0.0344,0.0315,0.0253,0.0215,0.0194,0.0151,0.0146,0.0115,0.0099,0.0081,0.0074,0.0158,0.0158,0.0158,0.0058,0,0.0595,0.0646,0.0624,0.0676,0.07,0.0652,0.0669,0.0648,0.0616,0.0603,0.0521,0.0496,0.0408,0.0388,0.0339,0.0233,0.0187,0.0224,0.0053,0.0048,0.0033,0.007,0.008,-0.0007,0.0053,0.0052,0.0052,0,0.0667,0.069,0.0751,0.0776,0.0783,0.0801,0.0816,0.0825,0.0789,0.0765,0.072,0.0642,0.0583,0.0496,0.0344,0.0372,0.0247,0.0154,0.0147,0.0088,0.0023,-0.0045,-0.0018,-0.0197,0.0044,0.0045,0.0045,0,0.0741,0.0782,0.0835,0.0842,0.0857,0.0876,0.0885,0.0869,0.0896,0.0867,0.087,0.0775,0.0736,0.0577,0.0385,0.0361,0.0211,0.015,0.0013,0.0009,-0.0037,-0.0044,-0.0197,0.0033,0.0033,0.0033,0.0033,0,0.0819,0.0861,0.0871,0.0898,0.0966,0.0952,0.1018,0.101,0.1022,0.1072,0.0959,0.0972,0.0753,0.0635,0.0438,0.0232,0.0249,0.0034,-0.0011,0.0004,0.0003,-0.0201,-0.031,0.0029,0.003,0.0031,0.0032,0,0.0889,0.0894,0.0954,0.0983,0.1,0.1047,0.1107,0.1152,0.1151,0.1214,0.121,0.1126,0.0975,0.0741,0.0496,0.0316,-0.0005,0.0019,0.0056,0.0016,-0.0284,-0.0385,-0.0599,-0.0685,-0.0151,-0.0152,-0.0153,0,0.0929,0.0967,0.1017,0.1056,0.107,0.1138,0.1185,0.1213,0.1273,0.1315,0.1353,0.1238,0.118,0.0823,0.048,0.0143,-0.0044,-0.0067,-0.0118,-0.0287,-0.0435,-0.0507,-0.0568,-0.0141,-0.0142,-0.0142,-0.0143,0,0.1006,0.1016,0.1059,0.114,0.1195,0.1274,0.1348,0.1423,0.1473,0.1526,0.1586,0.1548,0.1213,0.0896,0.0446,0.0204,-0.0188,-0.0088,-0.0277,-0.0444,-0.052,-0.0626,-0.0094,-0.0147,-0.0147,-0.0146,-0.0146,-0.0146,0.1055,0.1098,0.1152,0.1231,0.1301,0.1403,0.1486,0.1579,0.1699,0.1808,0.1772,0.1753,0.1293,0.0679,0.0341,-0.025,-0.0269,-0.0432,-0.0543,-0.0601,-0.0676,-0.0146,-0.024,-0.024,-0.024,-0.024,-0.024,0,0.1108,0.1162,0.1243,0.1332,0.1419,0.1446,0.1589,0.1684,0.1837,0.1935,0.199,0.1755,0.1188,0.0612,-0.0188,-0.0609,-0.0763,-0.084,-0.095,-0.0994,-0.0535,-0.0525,-0.0666,-0.0666,-0.0666,-0.0666,-0.0665,-0.0665,0.1141,0.1221,0.1264,0.1417,0.1486,0.1613,0.1703,0.1849,0.1953,0.2077,0.2073,0.2035,0.1591,0.0167,-0.0779,-0.1006,-0.1308,-0.1385,-0.153,-0.1228,-0.1199,-0.117,-0.1186,-0.1463,-0.1464,-0.1923,-0.1928,-0.1931]}],[{"header":{"parameterUnit":"m.s-1","parameterCategory":2,"la1":30.2991,"la2":30.254,"lo1":-89.0895,"lo2":-89.0444,"dy":0.0017,"dx":0.0017,"nx":28,"ny":28,"refTime":"2025-04-27T09:00:00:Z","depth":"2","parameterNumber":2,"parameterNumberName":"U-component_of_CURRENTS"},"data":[0,0,0,0,0,0,0,0,0,0,0,0,0,0,0,0,0,0,0,0,0,0,0,0,0,0,0,0,0,0,0,0,0,0,0,0,0,0,0,0,0,0,0,0,0,0,0,0,0,0,0,0,0,0,0,0,0,0,0.2438,0.2439,0,0.2509,0.251,0.2511,0.2558,0.2558,0.2559,0.2559,0.258,0.258,0.258,0,0,0,0,0,0,0,0,0,0,0,0,0,0.2352,0.2353,0.2438,0.2439,0.244,0.2509,0.251,0.2511,0.2558,0.2558,0.2559,0.2559,0.258,0.258,0.258,0,0,0,0,0,0,0,0,0,0,0,0,0,0.2402,0.2353,0.2438,0.2472,0.2476,0.2509,0.251,0.2511,0.2558,0.2558,0.2559,0.2559,0.258,0.258,0.258,0.2573,0,0,0.2582,0.2582,0,0,0,0,0,0,0,0,0.2399,0.2406,0.2466,0.247,0.2474,0.2525,0.2487,0.2529,0.2558,0.2527,0.2559,0.2559,0.2556,0.2559,0.2572,0.2574,0.2575,0.2582,0.2582,0.2582,0.2582,0,0,0,0,0,0,0,0.2396,0.2403,0.2466,0.2467,0.2472,0.2486,0.2493,0.2495,0.2537,0.2529,0.2533,0.2541,0.2558,0.2571,0.2573,0.2575,0.2582,0.2582,0.2582,0.2582,0.2661,0.2662,0,0,0,0,0,0,0.2386,0.24,0.2464,0.2469,0.2437,0.2487,0.2496,0.2508,0.2538,0.2544,0.254,0.2542,0.2571,0.2572,0.2573,0.263,0.2582,0.2582,0.2583,0.2659,0.2661,0.2663,0,0,0,0,0,0,0.2384,0.2392,0.2461,0.2435,0.2445,0.2488,0.2502,0.2509,0.2536,0.2547,0.2552,0.2561,0.2571,0.2573,0.2599,0.2628,0.2583,0.2583,0.2657,0.266,0.2662,0.2702,0,0,0,0,0,0,0.2381,0.239,0.2402,0.2435,0.2446,0.2495,0.2501,0.251,0.2539,0.2544,0.2566,0.2568,0.2571,0.2598,0.2599,0.2628,0.2583,0.2654,0.2658,0.2661,0.2698,0.2706,0.2712,0,0,0,0,0,0.2378,0.2394,0.2402,0.241,0.2459,0.2496,0.2504,0.2535,0.254,0.2559,0.2578,0.2568,0.2621,0.2599,0.26,0.263,0.2653,0.2657,0.2661,0.2695,0.2704,0.2712,0,0,0,0,0,0,0.2366,0.2401,0.2411,0.2438,0.2469,0.2504,0.2525,0.254,0.257,0.2575,0.2581,0.2585,0.2624,0.2621,0.2597,0.2667,0.2639,0.2644,0.2665,0.2674,0.268,0.2688,0.2584,0,0,0,0,0,0.2366,0.239,0.2421,0.2447,0.2459,0.2492,0.2511,0.2532,0.2559,0.2574,0.2588,0.261,0.264,0.2651,0.2672,0.2696,0.2707,0.2721,0.2728,0.2734,0.2743,0.2787,0.2798,0.2677,0.2677,0.2677,0,0,0.2363,0.2393,0.2402,0.2446,0.2471,0.2501,0.2506,0.2541,0.2577,0.2568,0.2617,0.2631,0.2654,0.2695,0.2712,0.2695,0.2777,0.2739,0.2743,0.275,0.2792,0.2804,0.2814,0.268,0.2679,0.2679,0,0,0.2373,0.2401,0.2419,0.2445,0.2487,0.2516,0.2527,0.2564,0.2595,0.2637,0.265,0.2681,0.2715,0.2743,0.276,0.2815,0.2814,0.2825,0.2861,0.2903,0.2913,0.2922,0.2956,0.2968,0.2825,0.2826,0.2826,0,0.2366,0.2404,0.2431,0.2456,0.2482,0.2523,0.2548,0.259,0.2635,0.2656,0.266,0.2735,0.2744,0.2806,0.2832,0.283,0.2852,0.2823,0.2911,0.292,0.2928,0.2961,0.2973,0.2828,0.2828,0.2827,0.2827,0,0.2385,0.242,0.2436,0.2487,0.2515,0.2552,0.2601,0.2642,0.2679,0.2709,0.2776,0.2805,0.2848,0.2862,0.2864,0.2934,0.293,0.2915,0.2885,0.2943,0.2974,0.2986,0.2831,0.2831,0.283,0.2829,0,0,0.2359,0.2434,0.2442,0.2461,0.2537,0.2554,0.2629,0.2693,0.2744,0.279,0.2849,0.2908,0.2919,0.2942,0.2956,0.2992,0.3066,0.2982,0.2983,0.3007,0.3164,0.313,0.3139,0.3067,0.3069,0.3071,0.3162,0,0.237,0.242,0.2462,0.2509,0.2532,0.2593,0.2663,0.272,0.2789,0.2855,0.2898,0.296,0.2955,0.2985,0.3024,0.3064,0.31,0.3043,0.3112,0.3114,0.307,0.3153,0.2936,0.2996,0.3174,0.3176,0.3177,0,0.2372,0.2409,0.2454,0.2522,0.2537,0.2581,0.2683,0.2744,0.2851,0.2903,0.2972,0.301,0.3088,0.3067,0.3173,0.3141,0.3158,0.3178,0.3181,0.3144,0.3103,0.2968,0.3011,0.3197,0.3196,0.3194,0.3193,0,0.2326,0.2399,0.2437,0.2457,0.2545,0.2583,0.2642,0.2752,0.2816,0.2933,0.2993,0.3084,0.3142,0.3194,0.3245,0.3219,0.3347,0.331,0.3295,0.3292,0.3118,0.3096,0.3373,0.3373,0.3373,0.3372,0.3372,0,0.2317,0.2336,0.2421,0.243,0.2487,0.2549,0.2629,0.2713,0.2837,0.29,0.3008,0.3091,0.3179,0.3257,0.3282,0.3343,0.3382,0.3326,0.3324,0.3127,0.3106,0.3281,0.3269,0.3376,0.3375,0.3374,0.3374,0,0.2252,0.231,0.234,0.243,0.2463,0.2492,0.261,0.2669,0.2806,0.2901,0.2939,0.3113,0.3228,0.3307,0.3399,0.3392,0.3444,0.344,0.3204,0.3174,0.3349,0.3338,0.3449,0.3448,0.3448,0.3448,0.3448,0,0.2222,0.2241,0.2322,0.2338,0.238,0.2442,0.2499,0.2638,0.271,0.2903,0.2946,0.3106,0.3198,0.3358,0.3387,0.3446,0.3463,0.3251,0.316,0.3375,0.3362,0.3352,0.3342,0.2944,0.294,0.2937,0.2934,0,0.2161,0.2199,0.2223,0.2277,0.2321,0.2364,0.2457,0.251,0.2662,0.2762,0.2896,0.2986,0.3168,0.3159,0.3258,0.3253,0.3231,0.3184,0.3481,0.2963,0.2908,0.2893,0.2898,0.2903,0.2906,0.2909,0.291,0.2911,0.2108,0.212,0.2168,0.22,0.2247,0.2278,0.228,0.2387,0.2472,0.2591,0.2746,0.2821,0.2927,0.2991,0.294,0.2919,0.3128,0.2994,0.3001,0.3012,0.2942,0.289,0.2868,0.2871,0.2873,0.2875,0.2877,0,0.2044,0.2065,0.209,0.211,0.2104,0.2185,0.2241,0.2227,0.2271,0.2425,0.252,0.2417,0.2482,0.2573,0.2518,0.2559,0.2491,0.2446,0.2329,0.2366,0.2398,0.2289,0.2046,0.2042,0.2039,0.2036,0,0,0.2011,0.1991,0.2004,0.1957,0.1985,0.197,0.1977,0.1976,0.2054,0.2076,0.2123,0.237,0.252,0.223,0.2237,0.2121,0.2205,0.2048,0.2734,0.2634,0.2659,0.2758,0.2641,0,0,0,0,0]},{"header":{"parameterUnit":"m.s-1","parameterCategory":2,"la1":30.2991,"la2":30.254,"lo1":-89.0895,"lo2":-89.0444,"dy":0.0017,"dx":0.0017,"nx":28,"ny":28,"refTime":"2025-04-27T09:00:00:Z","depth":"2","parameterNumber":3,"parameterNumberName":"V-component_of_CURRENTS"},"data":[0,0,0,0,0,0,0,0,0,0,0,0,0,0,0,0,0,0,0,0,0,0,0,0,0,0,0,0,0,0,0,0,0,0,0,0,0,0,0,0,0,0,0,0,0,0,0,0,0,0,0,0,0,0,0,0,0,0,-0.0063,-0.0064,0,-0.0155,-0.0156,-0.0157,-0.022,-0.0221,-0.0221,-0.0221,-0.0311,-0.0313,-0.0315,0,0,0,0,0,0,0,0,0,0,0,0,0,0.0007,0.0007,-0.0063,-0.0064,-0.0065,-0.0154,-0.0156,-0.0157,-0.022,-0.0221,-0.0221,-0.0221,-0.031,-0.0312,-0.0315,0,0,0,0,0,0,0,0,0,0,0,0,0,-0.0049,0.0006,-0.0063,-0.0106,-0.011,-0.0154,-0.0156,-0.0158,-0.022,-0.0221,-0.0221,-0.0222,-0.0309,-0.0312,-0.0315,-0.0326,0,0,-0.0325,-0.0326,0,0,0,0,0,0,0,0,-0.0046,-0.0052,-0.0098,-0.0103,-0.0108,-0.0175,-0.0164,-0.0213,-0.022,-0.0181,-0.0221,-0.0222,-0.0263,-0.027,-0.029,-0.033,-0.0334,-0.0325,-0.0327,-0.0329,-0.0329,0,0,0,0,0,0,0,-0.0042,-0.0049,-0.0101,-0.0099,-0.0105,-0.0137,-0.0146,-0.0174,-0.022,-0.0184,-0.0188,-0.0195,-0.0266,-0.0286,-0.0292,-0.0335,-0.0325,-0.0328,-0.033,-0.0331,-0.0387,-0.0387,0,0,0,0,0,0,-0.0023,-0.0045,-0.0098,-0.0104,-0.0075,-0.0138,-0.0147,-0.0154,-0.022,-0.023,-0.0195,-0.0198,-0.0281,-0.0288,-0.0295,-0.0298,-0.0329,-0.0332,-0.0333,-0.0388,-0.0387,-0.0387,0,0,0,0,0,0,-0.0022,-0.0027,-0.0094,-0.0075,-0.0085,-0.0138,-0.0146,-0.0156,-0.0172,-0.0228,-0.0238,-0.0199,-0.0281,-0.0291,-0.0316,-0.0302,-0.0333,-0.0336,-0.0388,-0.0387,-0.0387,-0.0312,0,0,0,0,0,0,-0.0019,-0.0026,-0.0022,-0.0073,-0.0086,-0.0109,-0.0146,-0.0157,-0.0175,-0.0179,-0.0235,-0.0244,-0.0282,-0.0311,-0.0319,-0.0307,-0.0338,-0.0389,-0.0388,-0.0387,-0.0315,-0.0309,-0.0304,0,0,0,0,0,-0.0016,-0.0007,-0.0021,-0.0027,-0.0079,-0.0108,-0.0117,-0.0158,-0.0174,-0.0175,-0.0215,-0.0242,-0.0312,-0.0314,-0.0323,-0.0312,-0.0389,-0.0388,-0.0387,-0.0317,-0.031,-0.0304,0,0,0,0,0,0,0.0028,-0.0014,-0.003,-0.0033,-0.0063,-0.0118,-0.0122,-0.0149,-0.0182,-0.0185,-0.0239,-0.0251,-0.0269,-0.0299,-0.03,-0.0326,-0.0354,-0.0355,-0.0298,-0.0291,-0.0286,-0.0262,-0.0341,0,0,0,0,0,0.0042,0.0037,-0.0008,-0.0008,-0.002,-0.0068,-0.0084,-0.011,-0.0148,-0.0163,-0.0203,-0.0242,-0.0273,-0.0288,-0.0323,-0.0335,-0.0365,-0.0333,-0.0328,-0.0323,-0.031,-0.035,-0.0346,-0.0384,-0.0384,-0.0384,0,0,0.0059,0.0037,0.0034,0.0002,-0.0026,-0.0034,-0.0079,-0.0095,-0.0099,-0.0166,-0.0181,-0.0223,-0.0272,-0.029,-0.03,-0.0313,-0.0328,-0.0321,-0.0317,-0.0307,-0.0348,-0.0345,-0.0342,-0.0383,-0.0383,-0.0383,0,0,0.0092,0.0073,0.0078,0.0057,0.0025,-0.0001,0.0,-0.0048,-0.0067,-0.0087,-0.0136,-0.0166,-0.0215,-0.0248,-0.027,-0.0251,-0.0298,-0.0263,-0.0214,-0.0253,-0.025,-0.0247,-0.0279,-0.028,-0.0259,-0.0259,-0.0259,0,0.0117,0.0115,0.0077,0.0075,0.0069,0.0021,0.0029,0.0003,-0.0046,-0.0056,-0.0079,-0.0149,-0.0192,-0.0212,-0.021,-0.0236,-0.0266,-0.0235,-0.0244,-0.0243,-0.0242,-0.0275,-0.0277,-0.0255,-0.0256,-0.0256,-0.0256,0,0.0145,0.0147,0.0151,0.0135,0.0125,0.0125,0.0089,0.0079,0.0054,0.002,-0.0005,-0.0067,-0.0105,-0.0126,-0.0165,-0.0177,-0.0203,-0.0233,-0.0258,-0.0233,-0.027,-0.0274,-0.025,-0.0251,-0.0252,-0.0253,0,0,0.0197,0.0175,0.018,0.0182,0.0159,0.0153,0.0158,0.0142,0.0154,0.0097,0.0099,0.0035,-0.0001,-0.0028,-0.0079,-0.0116,-0.0141,-0.0166,-0.017,-0.019,-0.0222,-0.0236,-0.0243,-0.0176,-0.0177,-0.0177,-0.0249,0,0.0235,0.0254,0.0232,0.0256,0.0263,0.023,0.0249,0.0229,0.0204,0.0192,0.0123,0.0102,0.0038,0.0026,-0.0021,-0.0108,-0.0148,-0.0118,-0.0249,-0.0252,-0.0263,-0.0246,-0.0212,-0.0273,-0.0253,-0.0254,-0.0254,0,0.0274,0.0283,0.0316,0.0324,0.0327,0.034,0.036,0.0361,0.0333,0.0313,0.0273,0.0215,0.0159,0.0099,-0.0027,-0.0007,-0.0103,-0.0178,-0.0183,-0.0223,-0.0273,-0.0297,-0.0281,-0.0261,-0.0261,-0.026,-0.026,0,0.0333,0.0342,0.0375,0.0374,0.0379,0.0399,0.0408,0.0404,0.0424,0.0387,0.0398,0.0309,0.028,0.0152,0.0001,-0.0016,-0.0144,-0.0189,-0.0293,-0.0295,-0.0304,-0.0306,-0.0281,-0.0281,-0.0281,-0.0281,-0.028,0,0.038,0.0401,0.0408,0.0423,0.0485,0.0462,0.0521,0.0519,0.0529,0.0558,0.0468,0.0479,0.0291,0.0193,0.0037,-0.0127,-0.0117,-0.0275,-0.0312,-0.0277,-0.0276,-0.0297,-0.0298,-0.0283,-0.0283,-0.0282,-0.0282,0,0.0427,0.0427,0.0465,0.0493,0.0513,0.0554,0.0604,0.0644,0.0646,0.0682,0.0678,0.0605,0.0481,0.029,0.0083,-0.0063,-0.0231,-0.0298,-0.0239,-0.0267,-0.0369,-0.0365,-0.0419,-0.042,-0.042,-0.0421,-0.0422,0,0.0447,0.0476,0.0531,0.0567,0.0581,0.0637,0.0694,0.0711,0.0759,0.0764,0.0799,0.0697,0.0644,0.0352,0.0076,-0.0187,-0.0231,-0.0336,-0.0366,-0.0351,-0.0382,-0.0377,-0.0372,-0.0351,-0.0351,-0.0351,-0.0351,0,0.0492,0.0517,0.055,0.0642,0.0702,0.0766,0.084,0.0905,0.0922,0.0962,0.0991,0.0947,0.0675,0.0425,0.0066,-0.0115,-0.0291,-0.0345,-0.0343,-0.0317,-0.0292,-0.0321,-0.0318,-0.0351,-0.0351,-0.0351,-0.0351,-0.0351,0.0522,0.0572,0.0632,0.0708,0.0789,0.0887,0.0955,0.1035,0.1127,0.1196,0.1141,0.1103,0.0794,0.0365,0.0038,-0.0294,-0.029,-0.0407,-0.0405,-0.0403,-0.0378,-0.0356,-0.0421,-0.0422,-0.0422,-0.0423,-0.0423,0,0.0567,0.0618,0.0692,0.0785,0.0875,0.0921,0.105,0.1123,0.1244,0.1313,0.1336,0.1069,0.0782,0.0438,-0.0055,-0.0363,-0.0385,-0.0453,-0.0414,-0.0411,-0.041,-0.0384,-0.043,-0.0431,-0.0431,-0.0432,0,0,0.059,0.0655,0.0695,0.0831,0.0918,0.1068,0.1153,0.1261,0.1347,0.1422,0.1422,0.1361,0.0924,0.0569,0.0144,-0.0139,-0.0201,-0.0192,-0.0153,-0.0054,-0.0049,-0.035,-0.0304,0,0,0,0,0]}],[{"header":{"parameterUnit":"m.s-1","parameterCategory":2,"la1":30.2991,"la2":30.254,"lo1":-89.0895,"lo2":-89.0444,"dy":0.0017,"dx":0.0017,"nx":28,"ny":28,"refTime":"2025-04-27T09:00:00:Z","depth":"4","parameterNumber":2,"parameterNumberName":"U-component_of_CURRENTS"},"data":[0,0,0,0,0,0,0,0,0,0,0,0,0,0,0,0,0,0,0,0,0,0,0,0,0,0,0,0,0,0,0,0,0,0,0,0,0,0,0,0,0,0,0,0,0,0,0,0,0,0,0,0,0,0,0,0,0,0,0.1441,0.1442,0,0.1528,0.1529,0.1529,0.1575,0.1576,0.1577,0.1577,0.1657,0.1659,0.166,0,0,0,0,0,0,0,0,0,0,0,0,0,0.1311,0.1312,0.1441,0.1443,0.1444,0.1528,0.1529,0.1529,0.1575,0.1576,0.1577,0.1577,0.1657,0.1659,0.166,0,0,0,0,0,0,0,0,0,0,0,0,0,0.1374,0.1313,0.1441,0.1481,0.1486,0.1528,0.1529,0.1529,0.1575,0.1576,0.1577,0.1578,0.1656,0.1658,0.1661,0.1658,0,0,0.1668,0.1669,0,0,0,0,0,0,0,0,0.1371,0.1378,0.1474,0.1478,0.1484,0.1547,0.1513,0.1574,0.1575,0.1536,0.1577,0.1578,0.1622,0.1628,0.1634,0.1662,0.1665,0.1668,0.167,0.1671,0.1671,0,0,0,0,0,0,0,0.1366,0.1375,0.147,0.1475,0.1482,0.1494,0.1503,0.1524,0.1569,0.1539,0.1544,0.1562,0.1625,0.1632,0.1637,0.1666,0.1668,0.167,0.1672,0.1673,0.1789,0.1791,0,0,0,0,0,0,0.1366,0.1371,0.1467,0.1473,0.1434,0.1496,0.1506,0.1521,0.1569,0.1579,0.1561,0.1564,0.1627,0.1634,0.164,0.1723,0.1671,0.1673,0.1674,0.1788,0.179,0.1792,0,0,0,0,0,0,0.1363,0.1373,0.1464,0.1428,0.1441,0.1498,0.1514,0.1523,0.1563,0.1587,0.1595,0.1597,0.1628,0.1636,0.1692,0.1724,0.1674,0.1676,0.1786,0.1788,0.1791,0.1837,0,0,0,0,0,0,0.1358,0.1371,0.1396,0.1428,0.1444,0.1513,0.1514,0.1524,0.1573,0.1578,0.162,0.1626,0.163,0.1689,0.1694,0.1726,0.1678,0.1784,0.1787,0.179,0.1833,0.184,0.1847,0,0,0,0,0,0.1353,0.1382,0.1396,0.1409,0.147,0.1515,0.1524,0.1563,0.1575,0.16,0.1631,0.1627,0.1712,0.1692,0.1698,0.1731,0.1782,0.1786,0.179,0.183,0.1839,0.1847,0,0,0,0,0,0,0.1347,0.1391,0.1407,0.1451,0.1492,0.1526,0.1561,0.158,0.1623,0.1637,0.1649,0.1658,0.1716,0.172,0.1697,0.1775,0.1746,0.1751,0.1775,0.1783,0.179,0.1793,0.168,0,0,0,0,0,0.1354,0.1387,0.1428,0.1469,0.149,0.1528,0.1557,0.1584,0.1621,0.1642,0.1671,0.1702,0.173,0.1756,0.178,0.1824,0.1834,0.185,0.1857,0.1863,0.187,0.1912,0.1923,0.1804,0.1804,0.1804,0,0,0.1366,0.1396,0.1418,0.1471,0.1504,0.1534,0.1548,0.1603,0.1633,0.1643,0.1703,0.173,0.1748,0.1798,0.1824,0.181,0.1904,0.1867,0.1872,0.1877,0.1917,0.1928,0.1939,0.1806,0.1806,0.1806,0,0,0.139,0.1431,0.1457,0.1491,0.155,0.1569,0.1591,0.1642,0.1674,0.1728,0.1743,0.1795,0.1837,0.1862,0.1875,0.1936,0.1937,0.1947,0.1987,0.2028,0.2037,0.2046,0.208,0.2091,0.1952,0.1952,0.1952,0,0.1402,0.1439,0.1475,0.1506,0.1539,0.1585,0.1616,0.165,0.1716,0.1749,0.1757,0.1846,0.1865,0.1923,0.1947,0.1951,0.1973,0.1951,0.2036,0.2045,0.2053,0.2085,0.2097,0.1955,0.1954,0.1954,0.1954,0,0.1428,0.1471,0.1494,0.1539,0.1577,0.1622,0.1666,0.1715,0.1756,0.1792,0.1875,0.1911,0.1966,0.1981,0.1983,0.2057,0.2053,0.2037,0.2012,0.2068,0.2098,0.211,0.1959,0.1958,0.1957,0.1956,0,0,0.1412,0.1494,0.1504,0.1535,0.1602,0.1634,0.1689,0.1752,0.1801,0.1869,0.1933,0.1995,0.2035,0.2053,0.2075,0.2114,0.2191,0.2108,0.2109,0.2136,0.2287,0.2168,0.2169,0.2193,0.2195,0.2197,0.2286,0,0.1421,0.1478,0.1517,0.158,0.1611,0.167,0.1718,0.1786,0.1844,0.192,0.198,0.2052,0.2055,0.21,0.2141,0.2182,0.2224,0.2169,0.2233,0.2235,0.2118,0.2179,0.2204,0.2295,0.2297,0.2299,0.2301,0,0.1416,0.1462,0.1518,0.1605,0.1626,0.1672,0.1764,0.1818,0.1922,0.1973,0.2057,0.2106,0.2197,0.218,0.2286,0.2254,0.228,0.23,0.2304,0.2184,0.2138,0.2227,0.2322,0.232,0.2318,0.2317,0.2316,0,0.1369,0.1457,0.1505,0.1536,0.1636,0.1684,0.1746,0.1844,0.1903,0.2024,0.2083,0.2182,0.2255,0.2303,0.2361,0.2335,0.246,0.242,0.2338,0.2331,0.2388,0.2378,0.2488,0.2488,0.2488,0.2487,0.2487,0,0.1341,0.1386,0.1498,0.1527,0.1596,0.168,0.1761,0.1836,0.1951,0.2023,0.2123,0.2189,0.2293,0.2372,0.2395,0.241,0.2493,0.2358,0.2349,0.2407,0.2397,0.2397,0.2385,0.2491,0.249,0.2489,0.2489,0,0.1271,0.1346,0.1411,0.1534,0.1575,0.163,0.1761,0.1817,0.1944,0.204,0.2087,0.223,0.2333,0.2417,0.2508,0.2451,0.2474,0.2458,0.2536,0.2527,0.2307,0.2297,0.2361,0.2358,0.2355,0.2352,0.235,0,0.1239,0.1266,0.1398,0.1439,0.1501,0.1594,0.1652,0.1793,0.1854,0.2043,0.208,0.2237,0.2314,0.2353,0.2444,0.2488,0.2462,0.2449,0.2353,0.2312,0.2297,0.2291,0.2285,0.2346,0.2345,0.2344,0.2344,0,0.1174,0.123,0.1284,0.1368,0.1441,0.1507,0.1612,0.1645,0.1807,0.1938,0.2026,0.209,0.2208,0.2278,0.2343,0.2362,0.2437,0.2418,0.2423,0.2332,0.2294,0.2281,0.2278,0.2334,0.2335,0.2336,0.2337,0,0.1123,0.1141,0.1217,0.1278,0.136,0.1401,0.1468,0.1552,0.1634,0.1846,0.1871,0.2039,0.2182,0.2216,0.2271,0.2291,0.2248,0.2155,0.2172,0.2184,0.2086,0.201,0.1965,0,0,0,0,0,0.1063,0.1071,0.1121,0.1182,0.1256,0.1308,0.1429,0.1503,0.1661,0.1678,0.1772,0.1871,0.1963,0.2054,0.2042,0.2199,0.2256,0.2175,0.2157,0.2279,0.229,0.2192,0,0,0,0,0,0,0.102,0.106,0.1081,0.1083,0.1109,0.1181,0.1255,0.1366,0.1391,0.1559,0.1626,0.1754,0.1881,0.1953,0.2004,0.2033,0.1983,0.2285,0.2281,0.2272,0.2283,0.2292,0.2195,0,0,0,0,0]},{"header":{"parameterUnit":"m.s-1","parameterCategory":2,"la1":30.2991,"la2":30.254,"lo1":-89.0895,"lo2":-89.0444,"dy":0.0017,"dx":0.0017,"nx":28,"ny":28,"refTime":"2025-04-27T09:00:00:Z","depth":"4","parameterNumber":3,"parameterNumberName":"V-component_of_CURRENTS"},"data":[0,0,0,0,0,0,0,0,0,0,0,0,0,0,0,0,0,0,0,0,0,0,0,0,0,0,0,0,0,0,0,0,0,0,0,0,0,0,0,0,0,0,0,0,0,0,0,0,0,0,0,0,0,0,0,0,0,0,-0.0041,-0.0041,0,-0.0096,-0.0097,-0.0097,-0.0128,-0.0128,-0.0128,-0.0128,-0.0197,-0.0199,-0.0201,0,0,0,0,0,0,0,0,0,0,0,0,0,0.0009,0.0008,-0.0041,-0.0041,-0.0042,-0.0096,-0.0097,-0.0098,-0.0128,-0.0128,-0.0128,-0.0128,-0.0196,-0.0199,-0.0201,0,0,0,0,0,0,0,0,0,0,0,0,0,-0.0027,0.0008,-0.0041,-0.0063,-0.0065,-0.0096,-0.0097,-0.0098,-0.0128,-0.0128,-0.0128,-0.0128,-0.0196,-0.0198,-0.0201,-0.0218,0,0,-0.0209,-0.0211,0,0,0,0,0,0,0,0,-0.0025,-0.0029,-0.0059,-0.0061,-0.0064,-0.0104,-0.0105,-0.0138,-0.0128,-0.0105,-0.0128,-0.0128,-0.0167,-0.0172,-0.0183,-0.0221,-0.0224,-0.021,-0.0211,-0.0213,-0.0213,0,0,0,0,0,0,0,-0.0022,-0.0027,-0.0063,-0.006,-0.0063,-0.008,-0.0085,-0.0111,-0.0136,-0.0107,-0.0109,-0.0114,-0.0168,-0.018,-0.0185,-0.0225,-0.021,-0.0212,-0.0214,-0.0215,-0.0287,-0.0287,0,0,0,0,0,0,-0.0013,-0.0024,-0.0062,-0.0065,-0.0043,-0.0081,-0.0087,-0.0092,-0.0135,-0.0142,-0.0114,-0.0115,-0.0176,-0.0182,-0.0188,-0.0209,-0.0213,-0.0215,-0.0217,-0.0287,-0.0287,-0.0287,0,0,0,0,0,0,-0.0011,-0.0015,-0.0059,-0.0045,-0.0052,-0.0082,-0.0088,-0.0093,-0.0106,-0.014,-0.0147,-0.012,-0.0176,-0.0184,-0.0211,-0.0212,-0.0216,-0.0219,-0.0286,-0.0287,-0.0287,-0.0252,0,0,0,0,0,0,-0.001,-0.0015,-0.0016,-0.0045,-0.0052,-0.0074,-0.0088,-0.0094,-0.0108,-0.011,-0.0148,-0.0155,-0.0176,-0.0207,-0.0214,-0.0216,-0.0221,-0.0286,-0.0287,-0.0287,-0.0253,-0.0251,-0.025,0,0,0,0,0,-0.0008,-0.0009,-0.0016,-0.002,-0.0053,-0.0074,-0.008,-0.0102,-0.0108,-0.0113,-0.0139,-0.0154,-0.0215,-0.0209,-0.0217,-0.022,-0.0286,-0.0286,-0.0287,-0.0254,-0.0252,-0.025,0,0,0,0,0,0,0.0011,-0.0013,-0.0021,-0.003,-0.0048,-0.0079,-0.0086,-0.01,-0.0125,-0.0127,-0.0159,-0.0167,-0.0192,-0.0212,-0.0205,-0.0243,-0.0252,-0.0255,-0.0224,-0.0223,-0.0221,-0.0204,-0.0223,0,0,0,0,0,0.0015,0.0009,-0.0017,-0.0023,-0.0031,-0.0057,-0.0069,-0.0083,-0.0108,-0.0119,-0.0145,-0.0174,-0.0202,-0.0216,-0.0243,-0.0263,-0.0282,-0.0271,-0.0269,-0.0268,-0.026,-0.0292,-0.0292,-0.0289,-0.0289,-0.0289,0,0,0.002,0.0007,0.0003,-0.0019,-0.0035,-0.0044,-0.0064,-0.0079,-0.0086,-0.0123,-0.0141,-0.0171,-0.0207,-0.023,-0.0243,-0.0246,-0.0279,-0.0268,-0.0267,-0.026,-0.0293,-0.0293,-0.0293,-0.029,-0.029,-0.029,0,0,0.003,0.0017,0.0016,0.0003,-0.0017,-0.0034,-0.0036,-0.0065,-0.0077,-0.0099,-0.0128,-0.0155,-0.0197,-0.0221,-0.0239,-0.0245,-0.0272,-0.0257,-0.0234,-0.0265,-0.0265,-0.0265,-0.029,-0.0293,-0.0254,-0.0254,-0.0254,0,0.0038,0.0034,0.0012,0.0009,0.0004,-0.0026,-0.0024,-0.0044,-0.0078,-0.0085,-0.0099,-0.0159,-0.0191,-0.0217,-0.0221,-0.0241,-0.0261,-0.0236,-0.0262,-0.0262,-0.0263,-0.0289,-0.0292,-0.0252,-0.0253,-0.0253,-0.0253,0,0.0046,0.0045,0.0044,0.0032,0.0024,0.0019,-0.0005,-0.0016,-0.0034,-0.0055,-0.0084,-0.013,-0.0161,-0.0181,-0.0205,-0.0228,-0.0241,-0.0257,-0.0262,-0.0261,-0.0288,-0.0293,-0.025,-0.0251,-0.0251,-0.0251,0,0,0.0061,0.0052,0.0053,0.006,0.0039,0.0036,0.0027,0.0012,0.0015,-0.0028,-0.0032,-0.009,-0.0112,-0.0134,-0.017,-0.0201,-0.0231,-0.0228,-0.0231,-0.0245,-0.0297,-0.0285,-0.0289,-0.0253,-0.0253,-0.0254,-0.0313,0,0.0076,0.0085,0.0074,0.0088,0.0093,0.0073,0.0072,0.0056,0.0034,0.0022,-0.0029,-0.005,-0.0095,-0.0106,-0.0146,-0.0208,-0.0241,-0.0213,-0.0302,-0.0305,-0.0288,-0.0293,-0.0255,-0.0316,-0.0317,-0.0318,-0.0318,0,0.0086,0.0096,0.0113,0.0128,0.013,0.0133,0.0139,0.0133,0.0105,0.0088,0.0053,0.0016,-0.0034,-0.0071,-0.0174,-0.0155,-0.022,-0.0272,-0.0276,-0.0278,-0.0301,-0.0319,-0.0327,-0.0326,-0.0325,-0.0325,-0.0324,0,0.0113,0.0124,0.0144,0.0146,0.0154,0.0166,0.017,0.0155,0.0166,0.0133,0.0139,0.0064,0.0042,-0.0055,-0.016,-0.0169,-0.0273,-0.0298,-0.035,-0.035,-0.0358,-0.0357,-0.0369,-0.0369,-0.0369,-0.0369,-0.0369,0,0.013,0.0148,0.0162,0.0175,0.0214,0.0203,0.0236,0.0228,0.0227,0.0249,0.018,0.0182,0.0045,-0.0028,-0.014,-0.0252,-0.0259,-0.0343,-0.0364,-0.0343,-0.0339,-0.0361,-0.036,-0.0371,-0.0371,-0.037,-0.037,0,0.0147,0.0153,0.0185,0.0211,0.0227,0.0253,0.0293,0.0317,0.0307,0.0335,0.0333,0.0271,0.0178,0.004,-0.0113,-0.0207,-0.0327,-0.0367,-0.0323,-0.0342,-0.0391,-0.0387,-0.0431,-0.0431,-0.0431,-0.0431,-0.0431,0,0.0153,0.0168,0.0219,0.0252,0.0267,0.0308,0.0345,0.0355,0.0389,0.0394,0.0419,0.0346,0.0285,0.0095,-0.0073,-0.0281,-0.0315,-0.0383,-0.04,-0.0381,-0.0397,-0.0393,-0.0389,-0.0431,-0.0431,-0.0431,-0.0431,0,0.0169,0.0186,0.0218,0.0289,0.0339,0.0396,0.045,0.0487,0.0505,0.0499,0.0507,0.0404,0.03,0.0125,-0.0035,-0.0191,-0.0345,-0.0385,-0.0386,-0.0403,-0.0382,-0.0397,-0.0393,-0.0431,-0.0431,-0.0431,-0.0431,0,0.0184,0.0212,0.026,0.0324,0.0392,0.0469,0.0493,0.0544,0.0578,0.0587,0.0588,0.0465,0.0388,0.0172,0.0023,-0.0127,-0.0175,-0.0237,-0.0247,-0.0249,-0.0187,-0.0133,-0.0119,0,0,0,0,0,0.0197,0.0235,0.0293,0.0372,0.0442,0.0488,0.0561,0.0581,0.0607,0.0632,0.0615,0.0521,0.0311,0.022,0.0076,-0.0006,-0.0222,-0.0184,-0.0303,-0.0432,-0.0432,-0.039,0,0,0,0,0,0,0.0206,0.0259,0.0294,0.0398,0.0462,0.0548,0.0601,0.0622,0.0639,0.064,0.0543,0.048,0.0282,0.0404,0.0076,0.0027,-0.0071,-0.0285,-0.0288,-0.0432,-0.0432,-0.0432,-0.0389,0,0,0,0,0]}]]